Location: Newark
(44.3290°N, 23.7757°E)
Time: 14:18:03
(UTC+00:00)

X-37B - Visible Passes

Search period start: 23 September 2023 00:00
Search period end: 03 October 2023 00:00
Orbit: 277 x 277 km, 45.0° (Epoch: 01 November)

Date Brightness Start Highest point End Pass type
(mag) Time Alt. Az. Time Alt. Az. Time Alt. Az.
23 Sep 0.0 02:50:21 57° WNW 02:50:41 70° N 02:53:09 10° E visible
24 Sep -0.1 02:51:05 61° WNW 02:51:24 75° N 02:53:52 10° E visible
25 Sep -0.3 02:51:52 70° W 02:52:06 88° SSW 02:54:33 10° ESE visible
26 Sep -0.1 02:52:44 63° SSW 02:52:47 63° SSW 02:55:12 10° ESE visible
27 Sep 0.7 02:53:41 38° S 02:53:41 38° S 02:55:45 10° SE visible
28 Sep 1.7 02:54:45 21° S 02:54:45 21° S 02:56:07 10° SSE visible
29 Sep 2.7 02:55:59 11° S 02:55:59 11° S 02:56:10 10° S visible
